COSMOS 571

导读

COSMOS 571是苏联(归属独联体CIS)于1973年6月8日发射的“宇宙”(COSMOS)系列卫星。该系列是冷战时期苏联规模最大的卫星家族,涵盖军事侦察、电子情报收集等多种任务,多数为军用航天器。作为系列早期成员,它见证了苏联航天技术发展,如今已完成使命,成为人类太空探索历程中的重要印记。

基本信息
目录编号:
6682
目录名称:
COSMOS 571
国际标识:
1973-037H
轨道中心:
EARTH
卫星名称:
COSMOS 571
卫星全名:
--
卫星状态:
在轨 (已飞行19456 天)
发射日期:
1973-06-08 UTC
国别 :
俄罗斯(独联体) (CIS)
星等 :
--
该卫星已列入 空间交会检测服务 Space Conjunction Data Service (SCDS) ,当前飞行风险评估等级: 无高风险
轨道信息
数据来源 国际轨道数据 AOE轨道数据
星历时间 2026-09-14T07:25:59+0800
7小时前
查看轨道信息
2026-09-10T00:00:00+0800
4天前
查看轨道信息
半长轴 7776.712km 7776.696km
偏心率 0.0103401 0.0103131
轨道倾角 74.018° 74.019°
近地点辐角 248.340° 255.298°
升交点赤经 139.556° 145.460°
平近点角 122.668° 281.580°
近地点 1318.163km 1318.357km
远地点 1478.987km 1478.761km
周期 113.751分钟 113.750分钟
每日圈数 12.659274 12.659312
详细信息
使用方式:
暂无
2D轨道图
3D轨道图
轨道高度分析图
轨道倾角分析图
轨道综合分析图
查看轨道综合分析图
交会数据列表
事件ID 空间交会对象 最接近时刻(TCA) 交会距离 交会风险概率(CRP) 交会风险指数(CRI) 操作
CDM_260915-154200-668201-675824
2026-09-15T
15:42:19+0000
2.341 km
极远距离
9.591024E-7 极低风险 0.35
与全量物体交会距离演化趋势 订阅飞行安全评估服务
与全量物体交会风险概率演化趋势 订阅飞行安全评估服务